Date,TemperatureHighF,TemperatureAvgF,TemperatureLowF,DewpointHighF,DewpointAvgF,DewpointLowF,HumidityHigh,HumidityAvg,HumidityLow,PressureMaxIn,PressureMinIn,WindSpeedMaxMPH,WindSpeedAvgMPH,GustSpeedMaxMPH,PrecipitationSumIn
2013-5-1,72.1,57.1,42.8,36.2,27.2,19.5,53,34,14,0.00,0.00,8,2,11,0.00
2013-5-2,79.5,61.1,45.1,39.4,33.2,25.0,77,41,15,0.00,0.00,6,1,9,0.00
2013-5-3,72.1,59.1,50.9,37.4,30.1,23.2,59,35,16,0.00,0.00,8,2,9,0.00
2013-5-4,73.4,58.0,45.9,40.8,34.9,30.0,75,47,22,0.00,0.00,6,2,10,0.00
2013-5-5,67.6,55.0,45.3,37.1,33.2,26.8,70,47,23,0.00,0.00,8,2,10,0.00
2013-5-6,72.5,58.1,44.8,45.7,40.4,36.5,76,54,31,0.00,0.00,6,1,9,0.00
2013-5-7,76.5,64.3,49.6,53.6,45.5,38.6,82,54,31,0.00,0.00,8,2,9,0.00
2013-5-8,66.7,61.6,56.3,61.6,57.1,52.1,98,86,70,0.00,0.00,5,1,8,1.50
2013-5-9,70.2,60.4,53.6,57.7,51.8,44.8,96,76,42,0.00,0.00,5,0,6,0.35
2013-5-10,80.2,67.6,55.2,54.1,48.3,38.1,91,56,23,0.00,0.00,5,1,9,0.00
2013-5-11,72.1,65.2,61.9,62.3,60.5,53.9,98,86,65,0.00,0.00,5,1,11,0.67
2013-5-12,67.8,60.5,50.2,61.8,31.1,13.6,98,38,15,0.00,0.00,10,4,17,0.00
2013-5-13,59.0,49.8,43.7,27.1,21.1,16.9,49,33,22,0.00,0.00,11,3,13,0.00
2013-5-14,64.9,51.1,38.7,30.2,22.4,14.3,70,36,15,0.00,0.00,8,2,13,0.00
2013-5-15,70.7,55.5,44.1,50.4,35.7,23.9,62,48,34,0.00,0.00,6,1,11,0.00
2013-5-16,82.9,70.8,57.0,52.6,38.3,24.6,72,35,15,0.00,0.00,8,2,11,0.00
2013-5-17,73.8,64.4,56.8,37.7,31.5,25.4,46,30,18,0.00,0.00,10,2,11,0.00
2013-5-18,66.2,59.0,50.9,50.6,43.0,34.9,71,57,33,0.00,0.00,3,0,6,0.00
2013-5-19,59.0,57.6,55.8,57.1,54.8,47.4,97,91,68,0.00,0.00,4,0,6,0.43
2013-5-20,80.8,67.4,57.6,62.2,58.4,54.9,98,76,42,0.00,0.00,6,1,8,0.00
2013-5-21,87.3,74.7,63.5,66.2,61.2,57.1,98,67,37,0.00,0.00,7,2,10,0.00
2013-5-22,83.3,71.3,62.4,66.3,62.2,57.0,89,74,49,0.00,0.00,5,1,8,0.00
2013-5-23,74.7,69.7,67.1,69.0,67.0,65.3,98,91,78,0.00,0.00,5,1,10,2.01
2013-5-24,66.9,55.4,45.7,66.3,51.3,38.2,98,86,60,0.00,0.00,6,2,15,0.71
2013-5-25,51.8,48.3,45.0,43.4,38.9,30.0,93,71,47,0.00,0.00,10,4,15,0.28
2013-5-26,67.6,55.7,45.5,33.1,28.9,23.3,60,38,23,0.00,0.00,10,4,17,0.00
2013-5-27,77.0,62.9,48.0,34.7,28.2,24.4,50,29,15,0.00,0.00,6,2,10,0.00
2013-5-28,65.8,58.1,52.3,56.5,47.4,33.0,95,71,36,0.00,0.00,3,0,5,0.43
2013-5-29,82.6,69.6,57.9,63.3,59.0,56.5,98,73,43,0.00,0.00,6,1,11,0.04
2013-5-30,90.3,80.0,68.0,64.2,54.9,45.7,84,47,23,0.00,0.00,8,2,10,0.00
2013-5-31,91.4,80.4,68.2,63.9,54.3,44.1,81,45,21,0.00,0.00,8,1,9,0.00